When you browse on this site, cookies collect data to enhance your experience and personalize the content and advertising you see.
Visit our Privacy Policy to learn more. By continuing to use the site, you agree to this use of cookies and data.
  • în România
  • Lista ţărilor
  • Pe 7 zile
  • Temperatura apei
  • Hartă satelitară
  • Meteo pe hartă
  • Widget-uri
  • user-avatar
    Intrare

    Meteo pe oră la Arpajon

    Astăzi, 17 Februarie, Duminică

    Timp Temperatura Precipitaţii Vânt Presiune Umiditate
    00:00 +7°C° 0 mm 2 m/s 758 mmHg 72%
    01:00 +7°C° 0 mm 2 m/s 758 mmHg 72%
    02:00 +7°C° 0 mm 2 m/s 757 mmHg 72%
    03:00 +7°C° 0 mm 2 m/s 757 mmHg 72%
    04:00 +6°C° 0 mm 2 m/s 757 mmHg 73%
    05:00 +5°C° 0 mm 3 m/s 757 mmHg 73%
    06:00 +5°C° 0 mm 2 m/s 756 mmHg 73%
    07:00 +5°C° 0 mm 3 m/s 756 mmHg 67%
    08:00 +7°C° 0 mm 3 m/s 756 mmHg 61%
    09:00 +7°C° 0 mm 4 m/s 756 mmHg 54%
    10:00 +10°C° 0 mm 4 m/s 756 mmHg 50%
    11:00 +11°C° 0 mm 4 m/s 756 mmHg 46%
    12:00 +13°C° 0 mm 4 m/s 756 mmHg 42%
    13:00 +13°C° 0 mm 4 m/s 756 mmHg 43%
    14:00 +14°C° 0 mm 4 m/s 756 mmHg 44%
    15:00 +14°C° 0 mm 4 m/s 755 mmHg 44%
    16:00 +13°C° 0 mm 3 m/s 755 mmHg 50%
    17:00 +11°C° 0 mm 3 m/s 755 mmHg 56%
    18:00 +10°C° 0 mm 2 m/s 755 mmHg 61%
    19:00 +9°C° 0 mm 2 m/s 756 mmHg 63%
    20:00 +9°C° 0 mm 2 m/s 756 mmHg 66%
    21:00 +8°C° 0 mm 2 m/s 756 mmHg 68%
    22:00 +8°C° 0 mm 2 m/s 756 mmHg 70%
    23:00 +8°C° 0 mm 2 m/s 756 mmHg 71%

    Mâine, 18 Februarie, Luni

    Timp Temperatura Precipitaţii Vânt Presiune Umiditate
    00:00 +7°C° 0 mm 2 m/s 756 mmHg 73%
    01:00 +7°C° 0 mm 2 m/s 756 mmHg 75%
    02:00 +7°C° 0 mm 2 m/s 756 mmHg 77%
    03:00 +6°C° 0 mm 2 m/s 755 mmHg 78%
    04:00 +6°C° 0 mm 2 m/s 755 mmHg 80%
    05:00 +6°C° 0 mm 2 m/s 755 mmHg 81%
    06:00 +5°C° 0 mm 2 m/s 755 mmHg 82%
    07:00 +6°C° 0 mm 2 m/s 755 mmHg 78%
    08:00 +7°C° 0 mm 3 m/s 755 mmHg 73%
    09:00 +7°C° 0 mm 3 m/s 756 mmHg 69%
    10:00 +9°C° 0 mm 3 m/s 755 mmHg 65%
    11:00 +10°C° 0 mm 3 m/s 755 mmHg 61%
    12:00 +11°C° 0 mm 3 m/s 755 mmHg 57%
    13:00 +12°C° 0 mm 4 m/s 755 mmHg 57%
    14:00 +12°C° 0 mm 4 m/s 754 mmHg 57%
    15:00 +13°C° 0 mm 4 m/s 754 mmHg 57%
    16:00 +12°C° 0 mm 3 m/s 754 mmHg 63%
    17:00 +12°C° 0 mm 2 m/s 754 mmHg 69%
    18:00 +10°C° 0 mm 2 m/s 755 mmHg 74%
    19:00 +9°C° 0 mm 2 m/s 755 mmHg 77%
    20:00 +9°C° 0 mm 2 m/s 755 mmHg 80%
    21:00 +9°C° 0 mm 2 m/s 755 mmHg 83%
    22:00 +8°C° 0 mm 2 m/s 755 mmHg 85%
    23:00 +8°C° 0 mm 2 m/s 756 mmHg 87%

    Poimâine, 19 Februarie, Marţi

    Timp Temperatura Precipitaţii Vânt Presiune Umiditate
    00:00 +8°C° 0 mm 2 m/s 756 mmHg 88%
    01:00 +8°C° 0.1 mm 2 m/s 756 mmHg 90%
    02:00 +9°C° 0.1 mm 1 m/s 756 mmHg 91%
    03:00 +9°C° 0.1 mm 1 m/s 756 mmHg 93%
    04:00 +8°C° 0 mm 1 m/s 756 mmHg 93%
    05:00 +8°C° 0 mm 1 m/s 756 mmHg 93%
    06:00 +7°C° 0 mm 1 m/s 757 mmHg 94%
    07:00 +8°C° 0 mm 1 m/s 757 mmHg 90%
    08:00 +8°C° 0 mm 1 m/s 757 mmHg 86%
    09:00 +9°C° 0 mm 1 m/s 758 mmHg 82%
    10:00 +10°C° 0 mm 1 m/s 758 mmHg 76%
    11:00 +11°C° 0 mm 1 m/s 758 mmHg 70%
    12:00 +12°C° 0 mm 1 m/s 758 mmHg 63%
    13:00 +12°C° 0 mm 1 m/s 758 mmHg 61%
    14:00 +12°C° 0 mm 2 m/s 758 mmHg 58%
    15:00 +13°C° 0 mm 2 m/s 757 mmHg 56%
    16:00 +12°C° 0 mm 1 m/s 758 mmHg 57%
    17:00 +11°C° 0 mm 1 m/s 758 mmHg 59%
    18:00 +11°C° 0 mm 1 m/s 758 mmHg 61%
    19:00 +10°C° 0 mm 1 m/s 758 mmHg 63%
    20:00 +10°C° 0 mm 1 m/s 758 mmHg 66%
    21:00 +9°C° 0 mm 1 m/s 758 mmHg 68%
    22:00 +9°C° 0 mm 1 m/s 758 mmHg 73%
    23:00 +8°C° 0 mm 1 m/s 758 mmHg 77%

    20 Februarie, Miercuri

    Timp Temperatura Precipitaţii Vânt Presiune Umiditate
    00:00 +7°C° 0 mm 1 m/s 758 mmHg 81%
    01:00 +7°C° 0 mm 1 m/s 758 mmHg 83%
    02:00 +7°C° 0 mm 1 m/s 758 mmHg 85%
    03:00 +6°C° 0 mm 1 m/s 758 mmHg 87%
    04:00 +6°C° 0 mm 1 m/s 758 mmHg 88%
    05:00 +6°C° 0 mm 1 m/s 758 mmHg 89%
    06:00 +6°C° 0 mm 1 m/s 758 mmHg 90%
    07:00 +5°C° 0 mm 2 m/s 758 mmHg 87%
    08:00 +6°C° 0 mm 2 m/s 759 mmHg 84%
    09:00 +7°C° 0 mm 2 m/s 759 mmHg 81%
    10:00 +9°C° 0 mm 2 m/s 759 mmHg 75%
    11:00 +10°C° 0 mm 2 m/s 759 mmHg 70%
    12:00 +13°C° 0 mm 2 m/s 759 mmHg 64%
    13:00 +13°C° 0 mm 2 m/s 759 mmHg 63%
    14:00 +14°C° 0 mm 2 m/s 759 mmHg 62%
    15:00 +15°C° 0 mm 2 m/s 759 mmHg 60%
    16:00 +13°C° 0 mm 2 m/s 759 mmHg 66%
    17:00 +12°C° 0 mm 1 m/s 759 mmHg 71%
    18:00 +11°C° 0 mm 1 m/s 759 mmHg 76%
    19:00 +11°C° 0 mm 1 m/s 760 mmHg 78%
    20:00 +10°C° 0 mm 1 m/s 760 mmHg 80%
    21:00 +10°C° 0 mm 1 m/s 760 mmHg 82%
    22:00 +10°C° 0 mm 1 m/s 760 mmHg 84%
    23:00 +9°C° 0 mm 1 m/s 760 mmHg 85%

    21 Februarie, Joi

    Timp Temperatura Precipitaţii Vânt Presiune Umiditate
    00:00 +9°C° 0 mm 1 m/s 760 mmHg 87%
    01:00 +9°C° 0 mm 1 m/s 760 mmHg 88%
    02:00 +7°C° 0 mm 2 m/s 760 mmHg 89%
    03:00 +7°C° 0 mm 2 m/s 760 mmHg 90%
    04:00 +8°C° 0 mm 1 m/s 761 mmHg 90%
    05:00 +7°C° 0 mm 1 m/s 761 mmHg 91%
    06:00 +7°C° 0 mm 1 m/s 761 mmHg 92%
    07:00 +8°C° 0 mm 1 m/s 761 mmHg 89%
    08:00 +9°C° 0 mm 1 m/s 762 mmHg 86%
    09:00 +10°C° 0 mm 1 m/s 762 mmHg 84%
    10:00 +11°C° 0 mm 1 m/s 762 mmHg 76%
    11:00 +12°C° 0 mm 1 m/s 762 mmHg 69%
    12:00 +14°C° 0 mm 1 m/s 763 mmHg 61%
    13:00 +14°C° 0 mm 1 m/s 762 mmHg 57%
    14:00 +15°C° 0 mm 1 m/s 762 mmHg 53%
    15:00 +15°C° 0 mm 1 m/s 762 mmHg 49%
    16:00 +14°C° 0 mm 1 m/s 762 mmHg 54%
    17:00 +13°C° 0 mm 1 m/s 762 mmHg 58%
    18:00 +11°C° 0 mm 0 m/s 763 mmHg 63%
    19:00 +10°C° 0 mm 0 m/s 763 mmHg 65%
    20:00 +10°C° 0 mm 0 m/s 763 mmHg 67%
    21:00 +9°C° 0 mm 0 m/s 764 mmHg 69%
    22:00 +9°C° 0 mm 0 m/s 764 mmHg 70%
    23:00 +9°C° 0 mm 0 m/s 764 mmHg 72%

    22 Februarie, Vineri

    Timp Temperatura Precipitaţii Vânt Presiune Umiditate
    00:00 +8°C° 0 mm 0 m/s 764 mmHg 73%
    01:00 +8°C° 0 mm 0 m/s 764 mmHg 75%
    02:00 +7°C° 0 mm 0 m/s 764 mmHg 76%
    03:00 +7°C° 0 mm 0 m/s 765 mmHg 78%
    04:00 +8°C° 0 mm 1 m/s 765 mmHg 79%
    05:00 +8°C° 0 mm 1 m/s 765 mmHg 80%
    06:00 +7°C° 0 mm 1 m/s 765 mmHg 80%
    07:00 +8°C° 0 mm 1 m/s 765 mmHg 77%
    08:00 +9°C° 0 mm 1 m/s 766 mmHg 74%
    09:00 +10°C° 0 mm 1 m/s 766 mmHg 71%
    10:00 +11°C° 0 mm 1 m/s 766 mmHg 66%
    11:00 +13°C° 0 mm 2 m/s 766 mmHg 61%
    12:00 +14°C° 0 mm 2 m/s 766 mmHg 56%
    13:00 +14°C° 0 mm 2 m/s 766 mmHg 55%
    14:00 +15°C° 0 mm 2 m/s 765 mmHg 55%
    15:00 +14°C° 0 mm 3 m/s 765 mmHg 55%
    16:00 +14°C° 0 mm 2 m/s 765 mmHg 61%
    17:00 +13°C° 0 mm 2 m/s 765 mmHg 67%
    18:00 +12°C° 0 mm 2 m/s 766 mmHg 73%
    19:00 +10°C° 0 mm 2 m/s 766 mmHg 76%
    20:00 +10°C° 0 mm 2 m/s 766 mmHg 79%
    21:00 +9°C° 0 mm 2 m/s 766 mmHg 83%
    22:00 +9°C° 0 mm 2 m/s 766 mmHg 85%
    23:00 +9°C° 0 mm 2 m/s 766 mmHg 86%
    Arată mai mult